| time (UTC) | temp F | wind direction | speed MPH | gust MPH | rain 1hr in | rain 24hr in | rain mn in | humidity % | barometer mb |
| 20260506153008 | 70 | 272 | 0.0 | 9.0 | 0.00 | 0.00 | 0.00 | 65 | 1008.8 |
| 20260506152504 | 70 | 69 | 0.0 | 3.0 | 0.00 | 0.00 | 0.00 | 65 | 1008.8 |
| 20260506152007 | 70 | 306 | 2.0 | 9.0 | 0.00 | 0.00 | 0.00 | 64 | 1008.8 |
| 20260506151508 | 70 | 118 | 0.0 | 7.0 | 0.00 | 0.00 | 0.00 | 64 | 1009.1 |
| 20260506151011 | 71 | 133 | 1.0 | 9.0 | 0.00 | 0.00 | 0.00 | 62 | 1009.1 |
| 20260506150510 | 71 | 160 | 0.0 | 7.0 | 0.00 | 0.00 | 0.00 | 62 | 1009.1 |
| 20260506150010 | 71 | 289 | 2.0 | 9.0 | 0.00 | 0.00 | 0.00 | 62 | 1009.0 |
| 20260506145505 | 72 | 288 | 0.0 | 9.0 | 0.00 | 0.00 | 0.00 | 62 | 1009.1 |
| 20260506145008 | 71 | 265 | 2.0 | 12.0 | 0.00 | 0.00 | 0.00 | 63 | 1009.0 |
| 20260506144507 | 71 | 291 | 1.0 | 6.0 | 0.00 | 0.00 | 0.00 | 64 | 1008.9 |
| 20260506144004 | 71 | 170 | 6.0 | 9.0 | 0.00 | 0.00 | 0.00 | 64 | 1009.2 |
| 20260506143507 | 70 | 168 | 1.0 | 10.0 | 0.00 | 0.00 | 0.00 | 65 | 1009.0 |
| 20260506143008 | 70 | 275 | 0.0 | 7.0 | 0.00 | 0.00 | 0.00 | 66 | 1008.9 |
| 20260506142504 | 70 | 293 | 1.0 | 8.0 | 0.00 | 0.00 | 0.00 | 65 | 1009.0 |
| 20260506142006 | 70 | 249 | 1.0 | 3.0 | 0.00 | 0.00 | 0.00 | 66 | 1009.0 |
| 20260506141511 | 70 | 112 | 0.0 | 9.0 | 0.00 | 0.00 | 0.00 | 66 | 1009.0 |
| 20260506141004 | 70 | 133 | 2.0 | 9.0 | 0.00 | 0.00 | 0.00 | 65 | 1009.0 |
| 20260506140505 | 70 | 227 | 0.0 | 11.0 | 0.00 | 0.00 | 0.00 | 65 | 1009.0 |
| 20260506140011 | 70 | 270 | 0.0 | 11.0 | 0.00 | 0.00 | 0.00 | 66 | 1009.1 |
| 20260506135507 | 69 | 131 | 0.0 | 5.0 | 0.00 | 0.00 | 0.00 | 67 | 1009.1 |
| 20260506135005 | 69 | 293 | 0.0 | 5.0 | 0.00 | 0.00 | 0.00 | 66 | 1009.1 |
| 20260506134504 | 69 | 137 | 0.0 | 11.0 | 0.00 | 0.00 | 0.00 | 66 | 1009.1 |
| 20260506134011 | 69 | 274 | 2.0 | 9.0 | 0.00 | 0.00 | 0.00 | 66 | 1009.2 |
| 20260506133505 | 69 | 208 | 0.0 | 8.0 | 0.00 | 0.00 | 0.00 | 67 | 1009.3 |
| 20260506133004 | 69 | 127 | 1.0 | 5.0 | 0.00 | 0.00 | 0.00 | 67 | 1009.2 |
| 20260506132507 | 69 | 166 | 0.0 | 7.0 | 0.00 | 0.00 | 0.00 | 67 | 1009.1 |
| 20260506132005 | 69 | 200 | 1.0 | 7.0 | 0.00 | 0.00 | 0.00 | 67 | 1009.3 |
| 20260506131507 | 69 | 115 | 7.0 | 10.0 | 0.00 | 0.00 | 0.00 | 67 | 1009.2 |
| 20260506131004 | 69 | 154 | 2.0 | 7.0 | 0.00 | 0.00 | 0.00 | 68 | 1009.0 |
| 20260506130507 | 68 | 181 | 7.0 | 7.0 | 0.00 | 0.00 | 0.00 | 68 | 1009.0 |
| 20260506130008 | 68 | 114 | 1.0 | 6.0 | 0.00 | 0.00 | 0.00 | 69 | 1008.9 |
| 20260506125506 | 68 | 142 | 1.0 | 5.0 | 0.00 | 0.00 | 0.00 | 69 | 1008.9 |
| 20260506125008 | 68 | 266 | 1.0 | 11.0 | 0.00 | 0.00 | 0.00 | 69 | 1009.0 |
| 20260506124505 | 68 | 106 | 0.0 | 5.0 | 0.00 | 0.00 | 0.00 | 70 | 1009.0 |
| 20260506124006 | 67 | 140 | 0.0 | 7.0 | 0.00 | 0.00 | 0.00 | 72 | 1009.0 |
| 20260506123509 | 67 | 195 | 4.0 | 4.0 | 0.00 | 0.00 | 0.00 | 72 | 1009.0 |
| 20260506123010 | 66 | 142 | 0.0 | 7.0 | 0.00 | 0.00 | 0.00 | 72 | 1009.1 |
| 20260506122504 | 66 | 311 | 0.0 | 6.0 | 0.00 | 0.00 | 0.00 | 72 | 1009.1 |
| 20260506122004 | 66 | 247 | 0.0 | 5.0 | 0.00 | 0.00 | 0.00 | 72 | 1009.2 |
| 20260506121506 | 66 | 293 | 2.0 | 9.0 | 0.00 | 0.00 | 0.00 | 72 | 1009.3 |
| 20260506121010 | 67 | 253 | 2.0 | 7.0 | 0.00 | 0.00 | 0.00 | 72 | 1009.2 |
| 20260506120504 | 67 | 225 | 0.0 | 5.0 | 0.00 | 0.00 | 0.00 | 72 | 1009.4 |
| 20260506120007 | 67 | 267 | 0.0 | 6.0 | 0.00 | 0.00 | 0.00 | 73 | 1009.4 |
| 20260506115504 | 66 | 245 | 0.0 | 4.0 | 0.00 | 0.00 | 0.00 | 73 | 1009.4 |
| 20260506115006 | 66 | 138 | 0.0 | 10.0 | 0.00 | 0.00 | 0.00 | 74 | 1009.4 |
| 20260506114508 | 66 | 284 | 2.0 | 8.0 | 0.00 | 0.00 | 0.00 | 75 | 1009.3 |
| 20260506114005 | 66 | 276 | 3.0 | 4.0 | 0.00 | 0.00 | 0.00 | 75 | 1009.3 |
| 20260506113505 | 65 | 127 | 2.0 | 6.0 | 0.00 | 0.00 | 0.00 | 75 | 1009.3 |
| 20260506113009 | 65 | 231 | 1.0 | 10.0 | 0.00 | 0.00 | 0.00 | 75 | 1009.6 |
| 20260506112505 | 65 | 177 | 1.0 | 5.0 | 0.00 | 0.00 | 0.00 | 76 | 1009.6 |
| 20260506112012 | 65 | 270 | 0.0 | 2.0 | 0.00 | 0.00 | 0.00 | 77 | 1009.5 |
| 20260506111508 | 65 | 122 | 0.0 | 3.0 | 0.00 | 0.00 | 0.00 | 77 | 1009.4 |
| 20260506111010 | 65 | 323 | 2.0 | 8.0 | 0.00 | 0.00 | 0.00 | 77 | 1009.4 |
| 20260506110506 | 64 | 96 | 3.0 | 5.0 | 0.00 | 0.00 | 0.00 | 78 | 1009.3 |
| 20260506110010 | 64 | 172 | 1.0 | 6.0 | 0.00 | 0.00 | 0.00 | 78 | 1009.3 |
| 20260506105507 | 64 | 134 | 3.0 | 5.0 | 0.00 | 0.00 | 0.00 | 78 | 1009.2 |
| 20260506105006 | 64 | 168 | 0.0 | 8.0 | 0.00 | 0.00 | 0.00 | 78 | 1009.3 |
| 20260506104510 | 64 | 200 | 0.0 | 4.0 | 0.00 | 0.00 | 0.00 | 78 | 1009.3 |
| 20260506104005 | 64 | 152 | 2.0 | 3.0 | 0.00 | 0.00 | 0.00 | 78 | 1009.3 |
| 20260506103505 | 64 | 192 | 0.0 | 5.0 | 0.00 | 0.00 | 0.00 | 78 | 1009.3 |
| 20260506103004 | 64 | 272 | 0.0 | 3.0 | 0.00 | 0.00 | 0.00 | 78 | 1009.3 |
| 20260506102505 | 64 | 132 | 0.0 | 3.0 | 0.00 | 0.00 | 0.00 | 78 | 1009.3 |
| 20260506102011 | 64 | 173 | 0.0 | 6.0 | 0.00 | 0.00 | 0.00 | 78 | 1009.2 |
| 20260506101504 | 64 | 212 | 0.0 | 9.0 | 0.00 | 0.00 | 0.00 | 79 | 1009.1 |
| 20260506101007 | 64 | 287 | 0.0 | 5.0 | 0.00 | 0.00 | 0.00 | 79 | 1009.1 |
| 20260506100504 | 64 | 267 | 2.0 | 6.0 | 0.00 | 0.00 | 0.00 | 79 | 1009.0 |
| 20260506100005 | 64 | 131 | 0.0 | 5.0 | 0.00 | 0.00 | 0.00 | 79 | 1009.1 |
| 20260506095506 | 64 | 156 | 0.0 | 5.0 | 0.00 | 0.00 | 0.00 | 79 | 1009.0 |
| 20260506095004 | 64 | 249 | 0.0 | 4.0 | 0.00 | 0.00 | 0.00 | 79 | 1009.0 |
| 20260506094504 | 64 | 129 | 0.0 | 6.0 | 0.00 | 0.00 | 0.00 | 79 | 1008.9 |
| 20260506094004 | 64 | 102 | 0.0 | 4.0 | 0.00 | 0.00 | 0.00 | 80 | 1008.9 |
| 20260506093504 | 64 | 128 | 1.0 | 4.0 | 0.00 | 0.00 | 0.00 | 80 | 1009.1 |
| 20260506093005 | 64 | 122 | 1.0 | 7.0 | 0.00 | 0.00 | 0.00 | 80 | 1009.1 |
| 20260506092507 | 64 | 155 | 3.0 | 7.0 | 0.00 | 0.00 | 0.00 | 80 | 1009.1 |
| 20260506092005 | 64 | 155 | 0.0 | 3.0 | 0.00 | 0.00 | 0.00 | 80 | 1009.2 |
| 20260506091507 | 64 | 177 | 0.0 | 3.0 | 0.00 | 0.00 | 0.00 | 80 | 1009.1 |
| 20260506091004 | 64 | 263 | 2.0 | 3.0 | 0.00 | 0.00 | 0.00 | 79 | 1009.1 |
| 20260506090504 | 64 | 154 | 0.0 | 3.0 | 0.00 | 0.00 | 0.00 | 79 | 1009.2 |
| 20260506090007 | 64 | 60 | 0.0 | 3.0 | 0.00 | 0.00 | 0.00 | 79 | 1009.2 |
| 20260506085510 | 64 | 107 | 0.0 | 3.0 | 0.00 | 0.00 | 0.00 | 79 | 1009.3 |
| 20260506085007 | 64 | 286 | 0.0 | 4.0 | 0.00 | 0.00 | 0.00 | 79 | 1009.3 |
| 20260506084504 | 64 | 193 | 0.0 | 5.0 | 0.00 | 0.00 | 0.00 | 79 | 1009.3 |
| 20260506084007 | 64 | 310 | 0.0 | 6.0 | 0.00 | 0.00 | 0.00 | 78 | 1009.3 |
| 20260506083510 | 64 | 133 | 0.0 | 4.0 | 0.00 | 0.00 | 0.00 | 78 | 1009.2 |
| 20260506083004 | 64 | 128 | 0.0 | 4.0 | 0.00 | 0.00 | 0.00 | 78 | 1009.3 |
| 20260506082505 | 64 | 114 | 0.0 | 4.0 | 0.00 | 0.00 | 0.00 | 78 | 1009.3 |
| 20260506082004 | 64 | 143 | 0.0 | 4.0 | 0.00 | 0.00 | 0.00 | 78 | 1009.4 |
| 20260506081504 | 64 | 350 | 0.0 | 5.0 | 0.00 | 0.00 | 0.00 | 77 | 1009.4 |
| 20260506081007 | 64 | 192 | 0.0 | 6.0 | 0.00 | 0.00 | 0.00 | 77 | 1009.3 |
| 20260506080507 | 65 | 159 | 0.0 | 3.0 | 0.00 | 0.00 | 0.00 | 77 | 1009.3 |
| 20260506073506 | 65 | 166 | 0.0 | 3.0 | 0.00 | 0.00 | 0.00 | 75 | 1009.5 |
| 20260506073004 | 65 | 118 | 0.0 | 0.0 | 0.00 | 0.00 | 0.00 | 75 | 1009.4 |
| 20260506072505 | 65 | 166 | 0.0 | 3.0 | 0.00 | 0.00 | 0.00 | 74 | 1009.4 |
| 20260506072008 | 65 | 204 | 0.0 | 2.0 | 0.00 | 0.00 | 0.00 | 74 | 1009.5 |
| 20260506071505 | 65 | 131 | 0.0 | 3.0 | 0.00 | 0.00 | 0.00 | 74 | 1009.5 |
| 20260506071005 | 65 | 134 | 0.0 | 8.0 | 0.00 | 0.00 | 0.00 | 74 | 1009.6 |
| 20260506070507 | 66 | 139 | 0.0 | 3.0 | 0.00 | 0.00 | 0.00 | 73 | 1009.6 |
| 20260506062505 | 66 | 300 | 0.0 | 3.0 | 0.00 | 0.00 | 0.00 | 71 | 1009.6 |
| 20260506061509 | 66 | 126 | 0.0 | 2.0 | 0.00 | 0.00 | 0.00 | 70 | 1009.6 |
| 20260506061006 | 67 | 154 | 0.0 | 4.0 | 0.00 | 0.00 | 0.00 | 70 | 1009.6 |
| 20260506060510 | 67 | 202 | 0.0 | 4.0 | 0.00 | 0.00 | 0.00 | 70 | 1009.5 |
| 20260506051006 | 67 | 181 | 1.0 | 4.0 | 0.00 | 0.00 | 0.00 | 67 | 1010.1 |
| 20260506050507 | 67 | 130 | 1.0 | 10.0 | 0.00 | 0.00 | 0.00 | 67 | 1010.1 |
| 20260506045004 | 68 | 264 | 0.0 | 4.0 | 0.00 | 0.00 | 0.00 | 66 | 1010.1 |
| 20260506044506 | 68 | 180 | 0.0 | 7.0 | 0.00 | 0.00 | 0.00 | 65 | 1010.0 |
| 20260506044004 | 68 | 114 | 0.0 | 5.0 | 0.00 | 0.00 | 0.00 | 65 | 1010.1 |
| 20260506043510 | 68 | 163 | 1.0 | 3.0 | 0.00 | 0.00 | 0.00 | 65 | 1010.1 |
| 20260506043004 | 68 | 232 | 0.0 | 3.0 | 0.00 | 0.00 | 0.00 | 64 | 1010.1 |
| 20260506042513 | 68 | 134 | 1.0 | 6.0 | 0.00 | 0.00 | 0.00 | 64 | 1010.1 |
| 20260506042010 | 68 | 197 | 0.0 | 3.0 | 0.00 | 0.00 | 0.00 | 64 | 1010.0 |
| 20260506041504 | 68 | 188 | 0.0 | 8.0 | 0.00 | 0.00 | 0.00 | 63 | 1010.0 |
| 20260506041004 | 68 | 137 | 0.0 | 4.0 | 0.00 | 0.00 | 0.00 | 63 | 1010.0 |
| 20260506040510 | 69 | 296 | 0.0 | 6.0 | 0.00 | 0.00 | 0.00 | 63 | 1010.0 |
| 20260506040005 | 69 | 179 | 0.0 | 7.0 | 0.00 | 0.00 | 0.00 | 62 | 1010.0 |
| 20260506035508 | 69 | 240 | 2.0 | 5.0 | 0.00 | 0.00 | 0.00 | 61 | 1009.9 |
| 20260506035007 | 69 | 277 | 0.0 | 7.0 | 0.00 | 0.00 | 0.00 | 61 | 1010.0 |
| 20260506034509 | 69 | 289 | 0.0 | 8.0 | 0.00 | 0.00 | 0.00 | 61 | 1010.1 |
| 20260506034013 | 69 | 135 | 1.0 | 5.0 | 0.00 | 0.00 | 0.00 | 60 | 1010.0 |
| 20260506033504 | 70 | 111 | 0.0 | 11.0 | 0.00 | 0.00 | 0.00 | 60 | 1010.0 |
| 20260506033005 | 70 | 157 | 1.0 | 7.0 | 0.00 | 0.00 | 0.00 | 59 | 1010.0 |
| 20260506032504 | 70 | 193 | 0.0 | 9.0 | 0.00 | 0.00 | 0.00 | 59 | 1010.0 |
| 20260506032007 | 70 | 147 | 2.0 | 7.0 | 0.00 | 0.00 | 0.00 | 58 | 1010.0 |
| 20260506031504 | 70 | 302 | 2.0 | 7.0 | 0.00 | 0.00 | 0.00 | 58 | 1009.9 |
| 20260506031004 | 70 | 85 | 0.0 | 3.0 | 0.00 | 0.00 | 0.00 | 58 | 1010.0 |
| 20260506030507 | 70 | 129 | 0.0 | 7.0 | 0.00 | 0.00 | 0.00 | 58 | 1010.0 |
| 20260506030007 | 70 | 270 | 0.0 | 9.0 | 0.00 | 0.00 | 0.00 | 57 | 1009.9 |
| 20260506025507 | 71 | 252 | 4.0 | 8.0 | 0.00 | 0.00 | 0.00 | 57 | 1009.9 |
| 20260506025010 | 71 | 126 | 0.0 | 8.0 | 0.00 | 0.00 | 0.00 | 57 | 1009.9 |
| 20260506024504 | 71 | 246 | 0.0 | 7.0 | 0.00 | 0.00 | 0.00 | 56 | 1010.0 |
| 20260506024005 | 71 | 124 | 4.0 | 9.0 | 0.00 | 0.00 | 0.00 | 56 | 1010.0 |
| 20260506023504 | 71 | 138 | 0.0 | 3.0 | 0.00 | 0.00 | 0.00 | 56 | 1010.0 |
| 20260506023004 | 71 | 301 | 0.0 | 4.0 | 0.00 | 0.00 | 0.00 | 56 | 1009.9 |
| 20260506022505 | 71 | 264 | 1.0 | 9.0 | 0.00 | 0.00 | 0.00 | 56 | 1009.8 |
| 20260506022007 | 71 | 167 | 1.0 | 7.0 | 0.00 | 0.00 | 0.00 | 56 | 1009.8 |
| 20260506021511 | 71 | 166 | 0.0 | 5.0 | 0.00 | 0.00 | 0.00 | 55 | 1009.8 |
| 20260506021004 | 72 | 154 | 0.0 | 11.0 | 0.00 | 0.00 | 0.00 | 55 | 1009.9 |
| 20260506020507 | 72 | 185 | 1.0 | 7.0 | 0.00 | 0.00 | 0.00 | 55 | 1009.8 |
| 20260506020004 | 72 | 113 | 0.0 | 10.0 | 0.00 | 0.00 | 0.00 | 55 | 1009.7 |
| 20260506015507 | 72 | 171 | 1.0 | 7.0 | 0.00 | 0.00 | 0.00 | 55 | 1009.7 |
| 20260506015004 | 72 | 295 | 5.0 | 10.0 | 0.00 | 0.00 | 0.00 | 54 | 1009.7 |
| 20260506014504 | 73 | 94 | 1.0 | 6.0 | 0.00 | 0.00 | 0.00 | 53 | 1009.7 |
| 20260506014007 | 73 | 209 | 1.0 | 8.0 | 0.00 | 0.00 | 0.00 | 52 | 1009.7 |
| 20260506013504 | 73 | 179 | 2.0 | 3.0 | 0.00 | 0.00 | 0.00 | 51 | 1009.6 |
| 20260506013007 | 74 | 174 | 2.0 | 10.0 | 0.00 | 0.00 | 0.00 | 50 | 1009.5 |
| 20260506012507 | 74 | 289 | 1.0 | 8.0 | 0.00 | 0.00 | 0.00 | 49 | 1009.5 |
| 20260506012010 | 75 | 148 | 3.0 | 10.0 | 0.00 | 0.00 | 0.00 | 47 | 1009.5 |
| 20260506011510 | 75 | 130 | 2.0 | 7.0 | 0.00 | 0.00 | 0.00 | 45 | 1009.2 |
| 20260506011004 | 76 | 133 | 1.0 | 9.0 | 0.00 | 0.00 | 0.00 | 44 | 1009.1 |
| 20260506010510 | 76 | 171 | 1.0 | 11.0 | 0.00 | 0.00 | 0.00 | 44 | 1009.1 |
| 20260506010007 | 76 | 137 | 2.0 | 8.0 | 0.00 | 0.00 | 0.00 | 43 | 1009.0 |
| 20260506005505 | 76 | 121 | 0.0 | 8.0 | 0.00 | 0.00 | 0.00 | 42 | 1008.9 |
| 20260506005004 | 77 | 236 | 1.0 | 7.0 | 0.00 | 0.00 | 0.00 | 42 | 1008.8 |
| 20260506004509 | 77 | 288 | 0.0 | 5.0 | 0.00 | 0.00 | 0.00 | 41 | 1008.9 |
| 20260506004004 | 77 | 160 | 0.0 | 10.0 | 0.00 | 0.00 | 0.00 | 41 | 1008.9 |
| 20260506003504 | 77 | 121 | 0.0 | 4.0 | 0.00 | 0.00 | 0.00 | 40 | 1008.7 |
| 20260506003004 | 78 | 312 | 1.0 | 9.0 | 0.00 | 0.00 | 0.00 | 40 | 1008.8 |
| 20260506002504 | 78 | 345 | 1.0 | 8.0 | 0.00 | 0.00 | 0.00 | 40 | 1008.7 |
| 20260506002007 | 78 | 127 | 0.0 | 9.0 | 0.00 | 0.00 | 0.00 | 39 | 1008.7 |
| 20260506001504 | 78 | 133 | 1.0 | 11.0 | 0.00 | 0.00 | 0.00 | 39 | 1008.6 |
| 20260506001007 | 78 | 287 | 3.0 | 6.0 | 0.00 | 0.00 | 0.00 | 39 | 1008.5 |
| 20260506000508 | 79 | 48 | 0.0 | 10.0 | 0.00 | 0.00 | 0.00 | 38 | 1008.5 |
| 20260506000007 | 79 | 209 | 2.0 | 7.0 | 0.00 | 0.00 | 0.00 | 37 | 1008.6 |
| 20260505235507 | 79 | 264 | 0.0 | 9.0 | 0.00 | 0.00 | 0.00 | 36 | 1008.5 |
| 20260505235004 | 79 | 249 | 0.0 | 8.0 | 0.00 | 0.00 | 0.00 | 35 | 1008.5 |
| 20260505234507 | 80 | 274 | 0.0 | 8.0 | 0.00 | 0.00 | 0.00 | 34 | 1008.2 |
| 20260505234004 | 80 | 300 | 2.0 | 6.0 | 0.00 | 0.00 | 0.00 | 33 | 1008.1 |
| 20260505233505 | 80 | 323 | 0.0 | 8.0 | 0.00 | 0.00 | 0.00 | 33 | 1008.1 |
| 20260505233007 | 80 | 256 | 0.0 | 11.0 | 0.00 | 0.00 | 0.00 | 33 | 1008.0 |
| 20260505232507 | 80 | 293 | 5.0 | 12.0 | 0.00 | 0.00 | 0.00 | 32 | 1007.8 |
| 20260505232004 | 80 | 254 | 5.0 | 6.0 | 0.00 | 0.00 | 0.00 | 32 | 1007.8 |
| 20260505231513 | 80 | 60 | 0.0 | 10.0 | 0.00 | 0.00 | 0.00 | 32 | 1007.8 |
| 20260505231004 | 80 | 142 | 6.0 | 8.0 | 0.00 | 0.00 | 0.00 | 32 | 1007.7 |
| 20260505230504 | 81 | 281 | 0.0 | 13.0 | 0.00 | 0.00 | 0.00 | 31 | 1007.6 |
| 20260505230007 | 81 | 254 | 2.0 | 9.0 | 0.00 | 0.00 | 0.00 | 31 | 1007.7 |
| 20260505225505 | 81 | 233 | 0.0 | 10.0 | 0.00 | 0.00 | 0.00 | 30 | 1007.5 |
| 20260505225007 | 81 | 108 | 0.0 | 12.0 | 0.00 | 0.00 | 0.00 | 30 | 1007.5 |
| 20260505224504 | 81 | 185 | 0.0 | 8.0 | 0.00 | 0.00 | 0.00 | 29 | 1007.6 |
| 20260505224004 | 81 | 262 | 2.0 | 10.0 | 0.00 | 0.00 | 0.00 | 29 | 1007.6 |
| 20260505223504 | 81 | 295 | 0.0 | 8.0 | 0.00 | 0.00 | 0.00 | 29 | 1007.5 |
| 20260505223004 | 82 | 249 | 0.0 | 7.0 | 0.00 | 0.00 | 0.00 | 29 | 1007.6 |
| 20260505222510 | 82 | 271 | 4.0 | 9.0 | 0.00 | 0.00 | 0.00 | 28 | 1007.6 |
| 20260505222004 | 82 | 137 | 1.0 | 12.0 | 0.00 | 0.00 | 0.00 | 28 | 1007.4 |
| 20260505221507 | 82 | 301 | 2.0 | 13.0 | 0.00 | 0.00 | 0.00 | 28 | 1007.4 |
| 20260505221004 | 83 | 283 | 1.0 | 12.0 | 0.00 | 0.00 | 0.00 | 27 | 1007.5 |
| 20260505220504 | 83 | 275 | 4.0 | 20.0 | 0.00 | 0.00 | 0.00 | 27 | 1007.2 |
| 20260505220014 | 83 | 264 | 1.0 | 13.0 | 0.00 | 0.00 | 0.00 | 28 | 1007.3 |
| 20260505215507 | 83 | 126 | 4.0 | 11.0 | 0.00 | 0.00 | 0.00 | 27 | 1007.0 |
| 20260505215007 | 83 | 304 | 3.0 | 9.0 | 0.00 | 0.00 | 0.00 | 28 | 1007.0 |
| 20260505214507 | 83 | 270 | 6.0 | 7.0 | 0.00 | 0.00 | 0.00 | 28 | 1006.9 |
| 20260505214004 | 83 | 242 | 1.0 | 8.0 | 0.00 | 0.00 | 0.00 | 29 | 1007.1 |
| 20260505213510 | 83 | 255 | 4.0 | 11.0 | 0.00 | 0.00 | 0.00 | 29 | 1007.0 |
| 20260505213007 | 83 | 220 | 7.0 | 12.0 | 0.00 | 0.00 | 0.00 | 30 | 1007.0 |
| 20260505212504 | 83 | 158 | 0.0 | 11.0 | 0.00 | 0.00 | 0.00 | 30 | 1007.0 |
| 20260505212004 | 84 | 6 | 1.0 | 12.0 | 0.00 | 0.00 | 0.00 | 29 | 1006.9 |
| 20260505211510 | 84 | 243 | 6.0 | 10.0 | 0.00 | 0.00 | 0.00 | 29 | 1007.0 |
| 20260505211013 | 84 | 314 | 4.0 | 10.0 | 0.00 | 0.00 | 0.00 | 29 | 1007.0 |
| 20260505210505 | 84 | 278 | 3.0 | 9.0 | 0.00 | 0.00 | 0.00 | 29 | 1007.1 |
| 20260505210008 | 83 | 148 | 1.0 | 13.0 | 0.00 | 0.00 | 0.00 | 29 | 1006.9 |
| 20260505205507 | 83 | 288 | 0.0 | 14.0 | 0.00 | 0.00 | 0.00 | 30 | 1006.9 |
| 20260505205007 | 84 | 276 | 2.0 | 15.0 | 0.00 | 0.00 | 0.00 | 29 | 1006.9 |
| 20260505204504 | 84 | 297 | 3.0 | 12.0 | 0.00 | 0.00 | 0.00 | 28 | 1007.0 |
| 20260505204004 | 84 | 267 | 5.0 | 18.0 | 0.00 | 0.00 | 0.00 | 29 | 1007.0 |
| 20260505203504 | 84 | 291 | 9.0 | 14.0 | 0.00 | 0.00 | 0.00 | 31 | 1007.0 |
| 20260505203011 | 84 | 154 | 2.0 | 12.0 | 0.00 | 0.00 | 0.00 | 31 | 1007.0 |
| 20260505202504 | 84 | 102 | 0.0 | 12.0 | 0.00 | 0.00 | 0.00 | 31 | 1006.9 |
| 20260505202004 | 85 | 199 | 0.0 | 11.0 | 0.00 | 0.00 | 0.00 | 30 | 1007.1 |
| 20260505201505 | 85 | 133 | 2.0 | 8.0 | 0.00 | 0.00 | 0.00 | 30 | 1007.0 |
| 20260505201004 | 84 | 295 | 2.0 | 13.0 | 0.00 | 0.00 | 0.00 | 31 | 1007.0 |
| 20260505200504 | 84 | 59 | 1.0 | 9.0 | 0.00 | 0.00 | 0.00 | 31 | 1007.2 |
| 20260505200004 | 85 | 356 | 3.0 | 12.0 | 0.00 | 0.00 | 0.00 | 30 | 1007.4 |
| 20260505195505 | 85 | 126 | 6.0 | 12.0 | 0.00 | 0.00 | 0.00 | 30 | 1007.2 |
| 20260505195004 | 85 | 239 | 3.0 | 11.0 | 0.00 | 0.00 | 0.00 | 31 | 1007.2 |
| 20260505194507 | 84 | 337 | 0.0 | 11.0 | 0.00 | 0.00 | 0.00 | 31 | 1007.5 |
| 20260505194010 | 84 | 13 | 1.0 | 12.0 | 0.00 | 0.00 | 0.00 | 31 | 1007.5 |
| 20260505193506 | 85 | 181 | 8.0 | 17.0 | 0.00 | 0.00 | 0.00 | 30 | 1007.6 |
| 20260505193004 | 85 | 135 | 2.0 | 9.0 | 0.00 | 0.00 | 0.00 | 31 | 1007.6 |
| 20260505192505 | 85 | 143 | 3.0 | 10.0 | 0.00 | 0.00 | 0.00 | 31 | 1007.8 |
| 20260505192007 | 85 | 24 | 1.0 | 10.0 | 0.00 | 0.00 | 0.00 | 30 | 1007.9 |
| 20260505191504 | 85 | 125 | 1.0 | 10.0 | 0.00 | 0.00 | 0.00 | 32 | 1007.8 |
| 20260505191008 | 84 | 135 | 1.0 | 14.0 | 0.00 | 0.00 | 0.00 | 31 | 1007.9 |
| 20260505190505 | 84 | 10 | 0.0 | 11.0 | 0.00 | 0.00 | 0.00 | 31 | 1008.1 |
| 20260505190005 | 84 | 58 | 0.0 | 12.0 | 0.00 | 0.00 | 0.00 | 31 | 1008.1 |
| 20260505185507 | 84 | 145 | 1.0 | 9.0 | 0.00 | 0.00 | 0.00 | 32 | 1008.2 |
| 20260505185004 | 85 | 270 | 3.0 | 9.0 | 0.00 | 0.00 | 0.00 | 32 | 1008.4 |
| 20260505184507 | 85 | 357 | 0.0 | 10.0 | 0.00 | 0.00 | 0.00 | 32 | 1008.4 |
| 20260505184008 | 85 | 156 | 7.0 | 10.0 | 0.00 | 0.00 | 0.00 | 33 | 1008.5 |
| 20260505183504 | 84 | 216 | 1.0 | 7.0 | 0.00 | 0.00 | 0.00 | 34 | 1008.5 |
| 20260505183011 | 84 | 60 | 2.0 | 12.0 | 0.00 | 0.00 | 0.00 | 34 | 1008.7 |
| 20260505182507 | 83 | 149 | 6.0 | 12.0 | 0.00 | 0.00 | 0.00 | 36 | 1008.5 |
| 20260505182004 | 84 | 247 | 2.0 | 8.0 | 0.00 | 0.00 | 0.00 | 34 | 1008.6 |
| 20260505181511 | 84 | 216 | 5.0 | 10.0 | 0.00 | 0.00 | 0.00 | 35 | 1008.7 |
| 20260505181013 | 84 | 158 | 4.0 | 13.0 | 0.00 | 0.00 | 0.00 | 35 | 1008.7 |
| 20260505180507 | 84 | 104 | 8.0 | 12.0 | 0.00 | 0.00 | 0.00 | 36 | 1008.7 |
| 20260505180010 | 84 | 126 | 2.0 | 8.0 | 0.00 | 0.00 | 0.00 | 36 | 1008.7 |
| 20260505175504 | 84 | 186 | 7.0 | 8.0 | 0.00 | 0.00 | 0.00 | 36 | 1008.9 |
| 20260505175007 | 84 | 171 | 1.0 | 10.0 | 0.00 | 0.00 | 0.00 | 37 | 1008.9 |
| 20260505174505 | 83 | 212 | 0.0 | 3.0 | 0.00 | 0.00 | 0.00 | 38 | 1008.8 |
| 20260505174007 | 83 | 20 | 1.0 | 8.0 | 0.00 | 0.00 | 0.00 | 37 | 1008.8 |
| 20260505173504 | 83 | 138 | 0.0 | 9.0 | 0.00 | 0.00 | 0.00 | 38 | 1009.0 |
| 20260505173007 | 83 | 115 | 1.0 | 8.0 | 0.00 | 0.00 | 0.00 | 39 | 1009.0 |
| 20260505172510 | 82 | 54 | 0.0 | 7.0 | 0.00 | 0.00 | 0.00 | 40 | 1009.0 |
| 20260505172004 | 83 | 131 | 1.0 | 12.0 | 0.00 | 0.00 | 0.00 | 38 | 1009.2 |
| 20260505171504 | 83 | 256 | 0.0 | 9.0 | 0.00 | 0.00 | 0.00 | 39 | 1009.0 |
| 20260505171004 | 83 | 222 | 0.0 | 7.0 | 0.00 | 0.00 | 0.00 | 39 | 1009.1 |
| 20260505170511 | 82 | 258 | 3.0 | 5.0 | 0.00 | 0.00 | 0.00 | 40 | 1009.1 |
| 20260505170007 | 82 | 162 | 0.0 | 7.0 | 0.00 | 0.00 | 0.00 | 39 | 1009.2 |
| 20260505165507 | 82 | 317 | 0.0 | 4.0 | 0.00 | 0.00 | 0.00 | 39 | 1009.2 |
| 20260505165005 | 82 | 195 | 3.0 | 11.0 | 0.00 | 0.00 | 0.00 | 39 | 1009.3 |
| 20260505164507 | 82 | 196 | 2.0 | 8.0 | 0.00 | 0.00 | 0.00 | 40 | 1009.4 |
| 20260505164011 | 81 | 284 | 0.0 | 5.0 | 0.00 | 0.00 | 0.00 | 39 | 1009.4 |
| 20260505163504 | 81 | 235 | 0.0 | 5.0 | 0.00 | 0.00 | 0.00 | 40 | 1009.5 |
| 20260505163010 | 81 | 251 | 0.0 | 6.0 | 0.00 | 0.00 | 0.00 | 41 | 1009.6 |
| 20260505162504 | 81 | 291 | 1.0 | 4.0 | 0.00 | 0.00 | 0.00 | 40 | 1009.7 |
| 20260505162007 | 81 | 92 | 2.0 | 3.0 | 0.00 | 0.00 | 0.00 | 42 | 1009.7 |
| 20260505161505 | 80 | 121 | 0.0 | 9.0 | 0.00 | 0.00 | 0.00 | 43 | 1009.8 |
| 20260505161004 | 80 | 279 | 2.0 | 5.0 | 0.00 | 0.00 | 0.00 | 42 | 1009.8 |
| 20260505160507 | 79 | 174 | 1.0 | 4.0 | 0.00 | 0.00 | 0.00 | 43 | 1009.9 |